Location: Vancouver
(49.2500°N, 123.1330°W)
Time: 23:39:15
(UTC-07:00)

ISS - Visible Passes

Search period start: 28 July 2014 00:00
Search period end: 07 August 2014 00:00
Orbit: 411 x 419 km, 51.6° (Epoch: 29 July)

Date Brightness Start Highest point End Pass type
(mag) Time Alt. Az. Time Alt. Az. Time Alt. Az.
28 Jul -1.1 01:31:25 19° E 01:31:25 19° E 01:32:34 10° ENE visible
28 Jul -2.8 03:04:16 25° W 03:06:01 60° N 03:09:22 10° ENE visible
28 Jul -2.8 04:39:38 10° WNW 04:42:59 64° NNE 04:46:20 10° E visible
29 Jul -3.1 02:17:05 71° NNW 02:17:09 71° NNW 02:20:32 10° ENE visible
29 Jul -2.6 03:50:47 10° WNW 03:54:07 57° N 03:57:26 10° E visible
30 Jul -1.7 01:29:54 29° ENE 01:29:54 29° ENE 01:31:42 10° ENE visible
30 Jul -2.5 03:02:46 17° WNW 03:05:13 54° N 03:08:32 10° E visible
30 Jul -3.3 04:38:44 10° WNW 04:42:06 85° SSW 04:45:28 10° ESE visible
31 Jul -0.4 00:42:47 11° ENE 00:42:47 11° ENE 00:42:51 10° ENE visible
31 Jul -2.6 02:15:38 45° NW 02:16:19 56° N 02:19:39 10° ENE visible
31 Jul -3.1 03:49:54 10° WNW 03:53:16 75° NNE 03:56:38 10° ESE visible
01 Aug -1.9 01:28:38 35° ENE 01:28:38 35° ENE 01:30:46 10° ENE visible
01 Aug -2.8 03:01:31 13° WNW 03:04:23 62° N 03:07:44 10° E visible
01 Aug -3.0 04:37:50 10° WNW 04:41:05 46° SSW 04:44:19 10° SE visible
02 Aug -2.6 02:14:53 47° NW 02:15:29 56° N 02:18:49 10° E visible
02 Aug -3.4 03:48:57 10° WNW 03:52:18 66° SSW 03:55:38 10° ESE visible
02 Aug -2.0 22:10:43 10° SSW 22:13:18 21° SE 22:14:19 18° ESE visible
02 Aug -1.3 23:46:20 10° WSW 23:47:27 19° WSW 23:47:27 19° WSW visible
03 Aug -0.6 01:29:21 14° ENE 01:29:21 14° ENE 01:29:53 10° E visible
03 Aug -3.4 03:02:24 41° WNW 03:03:28 90° S 03:06:50 10° ESE visible
03 Aug -2.1 04:37:11 10° W 04:39:53 22° SW 04:42:34 10° SSE visible
03 Aug -3.4 22:57:33 10° SW 23:00:51 63° SSE 23:03:00 20° ENE visible
04 Aug -1.4 00:34:20 10° W 00:35:57 25° WNW 00:35:57 25° WNW visible
04 Aug -1.9 03:52:28 24° S 03:52:28 24° S 03:54:14 10° SSE visible
04 Aug -3.0 22:08:53 10° SW 22:12:04 43° SSE 22:15:16 10° ENE visible
04 Aug -2.9 23:45:24 10° W 23:48:44 64° N 23:49:38 42° NE visible
05 Aug -0.4 01:22:22 10° WNW 01:22:31 11° WNW 01:22:31 11° WNW visible
05 Aug -2.4 21:20:23 10° SSW 21:23:19 29° SE 21:26:16 10° E visible
05 Aug -3.2 22:56:29 10° WSW 22:59:50 77° NNW 23:02:43 13° ENE visible
06 Aug -1.8 00:33:27 10° WNW 00:35:35 34° WNW 00:35:35 34° WNW visible
06 Aug -3.4 22:07:37 10° WSW 22:10:57 82° SSE 22:14:19 10° ENE visible
06 Aug -2.6 23:44:31 10° W 23:47:49 54° N 23:48:27 45° NE visible
